Regional Weather Roundup
Issued by NWS

Home | Current Version | Previous Version | Text Only | Print | Product List | Glossary Off
Versions: 1 2 3 4 5 6 7 8 9 10 11 12 13 14 15 16 17 18 19 20 21 22 23 24 25 26 27 28 29 30 31 32 33 34 35 36 37 38 39 40 41 42 43 44 45 46 47 48 49 50

855
ASUS43 KIND 250900
RWRIN

WEATHER ROUNDUP FOR INDIANA
NATIONAL WEATHER SERVICE INDIANAPOLIS IN
500 AM EDT SUN JUN 25 2017

NOTE: "FAIR" INDICATES FEW OR NO CLOUDS BELOW 12,000 FEET WITH NO
SIGNIFICANT WEATHER AND/OR OBSTRUCTIONS TO VISIBILITY.

* - STATION DOES NOT REPORT WEATHER SUCH AS PRECIPITATION OR FOG.

+ - STATION NOT QUALITY CONTROLLED BY THE NATIONAL WEATHER SERVICE.
    USE DATA WITH CAUTION...ESPECIALLY DEWPOINT AND RELATIVE
    HUMIDITY OBSERVATIONS.

INZ001>003-010>013-019-020-251000-
NORTHWEST INDIANA

CITY           SKY/WX    TMP DP  RH WIND       PRES   REMARKS
GARY /AIRPORT/ CLEAR     60  43  53 W10       30.07R
KNOX *+        MOCLDY    55  39  54 W7        30.04S
MICHIGAN CITY+ CLEAR     59  46  63 W7        30.05R
MONTICELLO +   MOCLDY    56  48  74 W6        30.07R

$$

LMZ046-743>745-251000-
SOUTHERN LAKE MICHIGAN

STATION/POSITION TIME  TEMP    WIND        PRES    WAVE
                       AIR SEA DIR/SP/G            HT
                 (UTC) (F)     (DEG/KT/KT) (MB)    (FT)
BURNS HARBOR     0840   63     290/ 19/ 23 1017.6S
MICHIGAN CITY    0830   62     270/ 21/ 24   N/A
5NW MICH CITY    0850   62 67  300/ 19/ 25   N/A     4

$$

INZ004-005-014>016-021>024-251000-
NORTH CENTRAL INDIANA

CITY           SKY/WX    TMP DP  RH WIND       PRES   REMARKS
GOSHEN         CLOUDY    55  46  71 SW6       30.02F
SOUTH BEND     MOCLDY    54  48  80 W6        30.04R

$$

INZ006>009-017-018-025>027-251000-
NORTHEAST INDIANA

CITY           SKY/WX    TMP DP  RH WIND       PRES   REMARKS
FORT WAYNE     PTCLDY    55  49  80 SW9       30.04F
KENDALLVILLE + CLOUDY    57  48  72 SW8       30.03S

$$

INZ028-029-035-036-043>045-051>053-251000-
WEST CENTRAL INDIANA

CITY           SKY/WX    TMP DP  RH WIND       PRES   REMARKS
CRAWFORDSVL +  CLEAR     52  49  90 SW6       30.10S
GREENCASTLE +  PTCLDY    54  48  82 CALM      30.11F
LAFAYETTE      PTCLDY    54  50  86 W5        30.07S
TERRE HAUTE    CLEAR     57  47  69 SW6       30.12S

$$

INZ030>032-037>040-046>048-054>057-064-065-251000-
CENTRAL INDIANA

CITY           SKY/WX    TMP DP  RH WIND       PRES   REMARKS
GREENWOOD *+   MOCLDY    56  50  79 SW3       30.11S
INDIANAPOLIS   CLEAR     55  50  83 SW6       30.10S
-EAGLE CREEK   CLEAR     60  46  59 SW6       30.09S
KOKOMO +       CLEAR     58  47  66 SW8       30.07F
MT COMFORT *+  CLEAR     55  48  76 SW5       30.10S
SHELBYVILLE    CLEAR     57  49  74 W6        30.10S

$$

INZ033-034-041-042-049-050-058-059-251000-
EAST CENTRAL INDIANA

CITY           SKY/WX    TMP DP  RH WIND       PRES   REMARKS
MUNCIE         CLEAR     58  48  69 SW6       30.08S
RICHMOND +     CLEAR     50  48  93 SW5       30.10F

$$

INZ060-061-067>069-081>083-085>088-251000-
SOUTHWEST INDIANA

CITY           SKY/WX    TMP DP  RH WIND       PRES   REMARKS
EVANSVILLE     CLEAR     54  52  93 W3        30.16S
HUNTINGBURG *+ PTCLDY    56  54  93 CALM      30.16S

$$

INZ062-063-066-070>080-084-089>092-251000-
SOUTH CENTRAL AND SOUTHEAST INDIANA

CITY           SKY/WX    TMP DP  RH WIND       PRES   REMARKS
BLOOMINGTON    CLEAR     56  48  74 SW3       30.12S
MADISON *+     CLEAR     55  54  94 CALM      30.15R
SEYMOUR +      CLEAR     55  54  94 S5        30.13R

$$





USA.gov is the U.S. government's official web portal to all federal, state and local government web resources and services.